Regional Weather Roundup
Issued by NWS

Home | Current Version | Previous Version | Text Only | Print | Product List | Glossary Off
Versions: 1 2 3 4 5 6 7 8 9 10 11 12 13 14 15 16 17 18 19 20 21 22 23 24 25 26 27 28 29 30 31 32 33 34 35 36 37 38 39 40 41 42 43 44 45 46 47 48 49 50

000
ASUS44 KMEG 032310
RWRTN
TENNESSEE HOURLY STATE WEATHER ROUNDUP
NATIONAL WEATHER SERVICE MEMPHIS TN
600 PM CDT THU SEP 03 2015

TNZ002-004-019-021-049-052-054-088>092-040000-
WEST TENNESSEE

CITY           SKY/WX    TMP DP  RH WIND       PRES   REMARKS
MEMPHIS INTL   MOSUNNY   92  68  45 SW5       29.92F HX  96
NWS MEMPHIS      N/A     94 N/A N/A MISG        N/A
JACKSON        SUNNY     90  69  50 NW5       29.92F HX  94
DYERSBURG      SUNNY     90  70  51 W3        29.93S HX  95
UNION CITY     SUNNY     90  72  55 NW3       29.92S HX  96
PARIS          SUNNY     88  68  51 NE5       29.94F HX  91
LEXINGTON      SUNNY     88  72  58 CALM      29.92F HX  94
$$

TNZ008-025-027-028-033-062-065-066-040000-
NORTH MIDDLE TENNESSEE

CITY           SKY/WX    TMP DP  RH WIND       PRES   REMARKS
NASHVILLE      PTSUNNY   91  61  36 E7        29.93F HX  91
CLARKSVILLE    PTSUNNY   91  65  41 N8        29.92F HX  93
SMYRNA         MOSUNNY   93  67  42 S5        29.93F HX  96
COOKEVILLE     SUNNY     88  72  58 NE3       29.96S HX  94
CROSSVILLE     SUNNY     81  64  56 NE3       30.02S
$$

TNZ061-075-076-078-094-096-097-040000-
SOUTH MIDDLE TENNESSEE

CITY           SKY/WX    TMP DP  RH WIND       PRES   REMARKS
FAYETTEVILLE   SUNNY     86  66  51 CALM      29.96S
TULLAHOMA      SUNNY     86  66  51 N5        29.97S
WINCHESTER     MOSUNNY   82  70  65 SE3       29.96S
MCMINNVILLE    SUNNY     88  72  58 NE6       29.97S HX  94
COLUMBIA       SUNNY     86  70  58 SW6       29.93S HX  90
SHELBYVILLE    SUNNY     90  70  51 CALM      29.95F HX  95
$$

TNZ017-018-042-046-047-040000-
NORTHEAST TENNESSEE

CITY           SKY/WX    TMP DP  RH WIND       PRES   REMARKS
TRI CITIES     MOSUNNY   84  66  54 S3        29.98S
ELIZABETHTON   CLEAR     79  70  73 CALM      29.98S
$$

TNZ012-013-036-069-073-074-040000-
CENTRAL EAST TENNESSEE

CITY           SKY/WX    TMP DP  RH WIND       PRES   REMARKS
KNOXVILLE      MOSUNNY   88  60  38 NE7       29.94S
OAK RIDGE      SUNNY     89  65  44 CALM      29.96F HX  91
GATLINBURG       N/A     88  61  40 N5        29.94S
MORRISTOWN     CLEAR     86  64  48 CALM      29.98S
$$

TNZ083-085-099-040000-
SOUTHEAST TENNESSEE

CITY           SKY/WX    TMP DP  RH WIND       PRES   REMARKS
CHATTANOOGA    PTSUNNY   88  64  44 N6        29.94S
$$

SKY/WX REPORTED AS FAIR MEANS FEW OR NO CLOUDS BELOW
12 THOUSAND FEET.




USA.gov is the U.S. government's official web portal to all federal, state and local government web resources and services.